[[{"header":{"parameterUnit":"m.s-1","parameterCategory":1,"la1":30.2991,"la2":30.254,"lo1":-89.0895,"lo2":-89.0444,"dy":0.0017,"dx":0.0017,"nx":28,"ny":28,"refTime":"2024-03-21T03:00:00:Z","depth":0,"parameterNumber":2,"parameterNumberName":"U-component_of_WINDS"},"data":[0,0,0,0,0,0,0,0,0,0,0,0,0,0,0,0,0,0,0,0,0,0,0,0,0,0,0,0,0,0,0,0,0,0,0,0,0,0,0,0,0,0,0,0,0,0,0,0,0,0,0,0,0,0,0,0,0,0,-9.7799,-9.7797,0,-9.7664,-9.7662,-9.766,-9.7457,-9.7453,-9.7449,-9.7446,-9.7306,-9.7305,-9.7305,0,0,0,0,0,0,0,0,0,0,0,0,0,-9.7882,-9.7881,-9.7799,-9.7797,-9.7796,-9.7664,-9.7662,-9.766,-9.7457,-9.7453,-9.7448,-9.7444,-9.7306,-9.7305,-9.7305,0,0,0,0,0,0,0,0,0,0,0,0,0,-9.7806,-9.7881,-9.7799,-9.7678,-9.7666,-9.7664,-9.7662,-9.766,-9.7458,-9.7453,-9.7447,-9.7442,-9.7306,-9.7305,-9.7305,-9.7409,0,0,-9.7303,-9.7303,0,0,0,0,0,0,0,0,-9.7811,-9.7803,-9.7698,-9.7687,-9.7673,-9.7571,-9.7639,-9.7576,-9.7459,-9.7537,-9.7446,-9.744,-9.7398,-9.739,-9.7376,-9.7403,-9.7397,-9.7303,-9.7302,-9.7302,-9.7302,0,0,0,0,0,0,0,-9.7816,-9.7808,-9.7745,-9.7697,-9.7682,-9.7631,-9.7614,-9.7626,-9.75,-9.753,-9.7515,-9.7502,-9.739,-9.7377,-9.7371,-9.7394,-9.7303,-9.7302,-9.7302,-9.7302,-9.75,-9.7505,0,0,0,0,0,0,-9.784,-9.7814,-9.7749,-9.7741,-9.773,-9.7634,-9.7615,-9.761,-9.7499,-9.7477,-9.7507,-9.7493,-9.7381,-9.7372,-9.7366,-9.7478,-9.7302,-9.7302,-9.7301,-9.7494,-9.7501,-9.7507,0,0,0,0,0,0,-9.7842,-9.7836,-9.7755,-9.7773,-9.7759,-9.7638,-9.7634,-9.761,-9.7596,-9.7481,-9.7457,-9.7516,-9.7376,-9.7366,-9.74,-9.7471,-9.7301,-9.7301,-9.7487,-9.7496,-9.7504,-9.7707,0,0,0,0,0,0,-9.7845,-9.7838,-9.7876,-9.7776,-9.7759,-9.7792,-9.7638,-9.7611,-9.7596,-9.7577,-9.7484,-9.7463,-9.7371,-9.7402,-9.7399,-9.7467,-9.73,-9.748,-9.7491,-9.7501,-9.7693,-9.7721,-9.7745,0,0,0,0,0,-9.7849,-9.7938,-9.7879,-9.7872,-9.7804,-9.7796,-9.7787,-9.7679,-9.7603,-9.7639,-9.7566,-9.7466,-9.7466,-9.7407,-9.7402,-9.7471,-9.7475,-9.7488,-9.75,-9.7682,-9.7716,-9.7745,0,0,0,0,0,0,-9.8048,-9.7922,-9.7855,-9.7915,-9.7868,-9.7762,-9.7804,-9.7719,-9.7692,-9.7675,-9.7543,-9.7524,-9.7574,-9.7526,-9.7464,-9.7566,-9.7455,-9.7467,-9.7594,-9.7626,-9.7652,-9.7659,-9.73,0,0,0,0,0,-9.8099,-9.8104,-9.7994,-9.8057,-9.8037,-9.7927,-9.7919,-9.7841,-9.7786,-9.7765,-9.7694,-9.7645,-9.7633,-9.7628,-9.7611,-9.7688,-9.7664,-9.7733,-9.776,-9.7781,-9.7792,-9.7827,-9.7856,-9.7548,-9.7548,-9.7548,0,0,-9.8204,-9.8136,-9.8146,-9.8095,-9.8049,-9.8056,-9.791,-9.7924,-9.7927,-9.7767,-9.7792,-9.7741,-9.7677,-9.7733,-9.7754,-9.7694,-9.7873,-9.7797,-9.7816,-9.7814,-9.7843,-9.7873,-9.7899,-9.7557,-9.7555,-9.7554,0,0,-9.8397,-9.8348,-9.8393,-9.8352,-9.8286,-9.8212,-9.8224,-9.8132,-9.8091,-9.8116,-9.7996,-9.7999,-9.7982,-9.7942,-9.7919,-9.8103,-9.8009,-9.8102,-9.8235,-9.8272,-9.8296,-9.8316,-9.8379,-9.8403,-9.8114,-9.8114,-9.8115,0,-9.8534,-9.8539,-9.8428,-9.8449,-9.843,-9.8288,-9.8334,-9.8299,-9.8231,-9.8221,-9.8157,-9.8133,-9.8081,-9.8124,-9.817,-9.8158,-9.8165,-9.8108,-9.8302,-9.8321,-9.8339,-9.8397,-9.8421,-9.8126,-9.8124,-9.8123,-9.8122,0,-9.8711,-9.8718,-9.8763,-9.8701,-9.8688,-9.8722,-9.8616,-9.8616,-9.8542,-9.8475,-9.8503,-9.8437,-9.8403,-9.8409,-9.8336,-9.8443,-9.8408,-9.8326,-9.821,-9.8382,-9.8433,-9.8455,-9.8142,-9.8138,-9.8134,-9.8132,0,0,-9.9018,-9.8898,-9.8916,-9.8887,-9.8806,-9.8808,-9.8837,-9.8806,-9.8807,-9.8768,-9.8786,-9.8778,-9.8702,-9.8677,-9.8598,-9.8632,-9.8779,-9.8544,-9.854,-9.8586,-9.889,-9.8948,-9.8976,-9.8719,-9.8723,-9.8726,-9.8893,0,-9.9191,-9.9231,-9.9134,-9.9198,-9.9201,-9.907,-9.9095,-9.9048,-9.8989,-9.8984,-9.8918,-9.8913,-9.8814,-9.8798,-9.8825,-9.8755,-9.8837,-9.8742,-9.8732,-9.8733,-9.8746,-9.9003,-9.9065,-9.9225,-9.8913,-9.8917,-9.8919,0,-9.9396,-9.9367,-9.9432,-9.9348,-9.9346,-9.937,-9.9334,-9.9332,-9.9277,-9.9232,-9.9207,-9.9117,-9.9139,-9.9034,-9.9061,-9.8999,-9.8991,-9.8957,-9.896,-9.895,-9.8832,-9.8995,-9.9274,-9.9297,-9.8951,-9.8948,-9.8946,0,-9.9608,-9.9587,-9.9622,-9.9602,-9.9506,-9.9526,-9.9487,-9.9428,-9.9416,-9.9386,-9.9376,-9.935,-9.9334,-9.9316,-9.9221,-9.9154,-9.926,-9.9146,-9.922,-9.9223,-9.9242,-9.9241,-9.9519,-9.9248,-9.9247,-9.9247,-9.9246,0,-9.9808,-9.9851,-9.9716,-9.9737,-9.9783,-9.9673,-9.9721,-9.967,-9.9619,-9.9628,-9.9515,-9.9526,-9.9403,-9.9401,-9.9328,-9.936,-9.9356,-9.9318,-9.9297,-9.9324,-9.9329,-9.9312,-9.9296,-9.9253,-9.9252,-9.925,-9.9249,0,-10.0049,-9.9961,-9.999,-9.99,-9.9878,-9.9916,-9.9837,-9.9853,-9.979,-9.9802,-9.9799,-9.9698,-9.969,-9.9596,-9.9567,-9.9518,-9.9578,-9.9538,-9.9596,-9.958,-9.9658,-9.965,-9.9929,-9.9959,-9.9675,-9.9678,-9.9681,0,-10.0179,-10.0209,-10.0123,-10.0121,-10.0088,-10.0087,-10.0075,-9.997,-9.9962,-9.9905,-9.9928,-9.9911,-9.989,-9.9884,-9.9807,-9.9785,-9.9741,-9.9841,-9.9736,-9.9763,-9.9737,-9.9734,-9.9735,-9.9861,-9.9864,-9.9867,-9.987,0,-10.0418,-10.0373,-10.036,-10.0333,-10.0322,-10.0296,-10.0262,-10.0267,-10.0152,-10.0149,-10.0139,-10.0125,-10.0097,-10.008,-10.0046,-10.0005,-9.9918,-9.9905,-9.992,-9.9945,-9.9975,-9.9955,-9.965,-9.9897,-9.9894,-9.9892,-9.9891,-9.989,-10.0603,-10.0624,-10.0567,-10.0556,-10.0521,-10.0493,-10.0503,-10.0443,-10.0433,-10.0402,-10.0342,-10.0342,-10.0288,-10.0232,-10.0201,-10.0199,-10.0147,-10.017,-10.0174,-10.018,-10.0194,-9.9982,-10.0193,-10.0192,-10.0191,-10.019,-10.019,0,-10.0832,-10.079,-10.0782,-10.0739,-10.0731,-10.0655,-10.0614,-10.0612,-10.0614,-10.0573,-10.0556,-10.0546,-10.0532,-10.0457,-10.0433,-10.0446,-10.0406,-10.0443,-10.0438,-10.043,-10.0243,-10.023,-10.0476,-10.0476,-10.0476,-10.0476,-10.0476,-10.0476,-10.0949,-10.098,-10.093,-10.0943,-10.09,-10.0899,-10.0883,-10.0857,-10.0823,-10.0817,-10.0804,-10.0757,-10.0702,-10.0674,-10.0657,-10.0636,-10.063,-10.0681,-10.0645,-10.0471,-10.0443,-10.0416,-10.0403,-10.0682,-10.0682,-10.0831,-10.0832,-10.0833]},{"header":{"parameterUnit":"m.s-1","parameterCategory":1,"la1":30.2991,"la2":30.254,"lo1":-89.0895,"lo2":-89.0444,"dy":0.0017,"dx":0.0017,"nx":28,"ny":28,"refTime":"2024-03-21T03:00:00:Z","depth":0,"parameterNumber":3,"parameterNumberName":"V-component_of_WINDS"},"data":[0,0,0,0,0,0,0,0,0,0,0,0,0,0,0,0,0,0,0,0,0,0,0,0,0,0,0,0,0,0,0,0,0,0,0,0,0,0,0,0,0,0,0,0,0,0,0,0,0,0,0,0,0,0,0,0,0,0,3.6194,3.6192,0,3.5999,3.5997,3.5994,3.5928,3.5929,3.593,3.5931,3.5724,3.5718,3.5712,0,0,0,0,0,0,0,0,0,0,0,0,0,3.6506,3.65,3.6194,3.6192,3.6189,3.5999,3.5997,3.5994,3.5928,3.5929,3.593,3.5931,3.5726,3.5719,3.5711,0,0,0,0,0,0,0,0,0,0,0,0,0,3.6346,3.6498,3.6195,3.6134,3.6126,3.6,3.5996,3.5993,3.5928,3.5929,3.593,3.5931,3.5729,3.572,3.571,3.5628,0,0,3.5682,3.5678,0,0,0,0,0,0,0,0,3.6355,3.6335,3.6145,3.6138,3.6129,3.5989,3.6031,3.587,3.5928,3.6003,3.5931,3.5932,3.5811,3.5795,3.5755,3.5618,3.561,3.5681,3.5675,3.5671,3.5668,0,0,0,0,0,0,0,3.6366,3.6343,3.6117,3.6142,3.6133,3.6115,3.6093,3.6,3.5902,3.5997,3.5991,3.5969,3.5807,3.5765,3.575,3.5606,3.5681,3.5673,3.5667,3.5663,3.5393,3.5391,0,0,0,0,0,0,3.6389,3.6353,3.6123,3.6111,3.6248,3.6108,3.6084,3.6033,3.5903,3.5885,3.5969,3.5967,3.578,3.5761,3.5743,3.5637,3.5671,3.5662,3.5657,3.5394,3.5393,3.5391,0,0,0,0,0,0,3.6395,3.6369,3.6131,3.623,3.6199,3.6102,3.6044,3.6028,3.5986,3.5882,3.5864,3.5944,3.578,3.5756,3.5658,3.5629,3.5658,3.565,3.5396,3.5394,3.5392,3.5427,0,0,0,0,0,0,3.6405,3.6372,3.634,3.623,3.6194,3.605,3.6042,3.6024,3.5971,3.5967,3.5854,3.5836,3.5779,3.5672,3.5648,3.5617,3.5642,3.5398,3.5395,3.5392,3.5428,3.5426,3.5425,0,0,0,0,0,3.6416,3.6356,3.6339,3.6311,3.6153,3.6049,3.6028,3.5965,3.5969,3.5936,3.5869,3.584,3.5637,3.5663,3.5635,3.5601,3.54,3.5396,3.5393,3.5428,3.5426,3.5425,0,0,0,0,0,0,3.6462,3.6341,3.632,3.6223,3.6147,3.6038,3.5994,3.5965,3.5885,3.5884,3.5808,3.5783,3.5691,3.5636,3.5667,3.5515,3.5517,3.5508,3.5553,3.555,3.5549,3.5563,3.5634,0,0,0,0,0,3.6462,3.639,3.6287,3.6211,3.6175,3.6092,3.6044,3.6003,3.592,3.5887,3.5813,3.5733,3.5651,3.5598,3.5517,3.5421,3.5395,3.5384,3.5382,3.5382,3.5373,3.5319,3.5312,3.5379,3.5379,3.5379,0,0,3.6459,3.6384,3.6342,3.6219,3.6155,3.608,3.6064,3.5986,3.5929,3.5874,3.5777,3.5721,3.5626,3.5529,3.5482,3.548,3.535,3.5377,3.5377,3.5369,3.5314,3.5308,3.5303,3.5377,3.5377,3.5378,0,0,3.6415,3.6352,3.6282,3.622,3.6125,3.607,3.6054,3.5949,3.5911,3.5813,3.5771,3.5702,3.5562,3.5497,3.5445,3.5381,3.535,3.5356,3.5347,3.5294,3.5289,3.5284,3.5259,3.5252,3.5349,3.5349,3.5349,0,3.6422,3.631,3.6249,3.6173,3.612,3.6071,3.5998,3.594,3.5823,3.5786,3.5787,3.5613,3.5545,3.5432,3.5417,3.5377,3.5354,3.5367,3.5295,3.5289,3.5283,3.5259,3.525,3.5351,3.535,3.535,3.535,0,3.6324,3.6247,3.6201,3.6092,3.6034,3.5961,3.5887,3.5836,3.5801,3.5747,3.5648,3.5566,3.5468,3.5439,3.5403,3.532,3.5322,3.531,3.531,3.5279,3.5255,3.5246,3.5352,3.5352,3.5352,3.5351,0,0,3.6299,3.616,3.6144,3.6095,3.5988,3.5926,3.5851,3.5758,3.5714,3.5636,3.557,3.5455,3.5444,3.5386,3.5342,3.5297,3.525,3.5289,3.5286,3.5284,3.5153,3.5162,3.5152,3.5231,3.5229,3.5227,3.5161,0,3.624,3.6105,3.6049,3.5939,3.5867,3.5821,3.5755,3.5682,3.563,3.556,3.5501,3.5421,3.5413,3.5377,3.5331,3.5266,3.5222,3.527,3.5166,3.5163,3.5189,3.5139,3.5147,3.5088,3.5151,3.515,3.5148,0,3.6152,3.6076,3.596,3.5863,3.5831,3.5773,3.5683,3.5618,3.5534,3.5499,3.5437,3.5396,3.5315,3.5323,3.5209,3.5243,3.5198,3.516,3.5156,3.5141,3.5152,3.5121,3.5068,3.5059,3.5133,3.5134,3.5136,0,3.6144,3.6013,3.5926,3.5885,3.5771,3.5731,3.5682,3.56,3.5548,3.5469,3.5435,3.5348,3.5299,3.5232,3.5169,3.5182,3.5061,3.5064,3.5028,3.5029,3.5001,3.5003,3.4938,3.4977,3.4977,3.4977,3.4977,0,3.6082,3.6012,3.5921,3.5868,3.5788,3.5726,3.5648,3.5595,3.5523,3.5457,3.5412,3.5351,3.5274,3.5203,3.5153,3.5066,3.5044,3.5013,3.5,3.5015,3.5019,3.4982,3.4983,3.4975,3.4975,3.4976,3.4976,0,3.6058,3.5995,3.5897,3.5799,3.5772,3.5718,3.5633,3.5578,3.5526,3.5444,3.5421,3.5338,3.5252,3.5184,3.5072,3.5039,3.4946,3.4933,3.4975,3.4967,3.4935,3.4938,3.484,3.4824,3.4877,3.4877,3.4877,0,3.6021,3.5967,3.5864,3.5818,3.5769,3.5696,3.5643,3.558,3.5527,3.543,3.5387,3.5299,3.5225,3.509,3.5019,3.4933,3.4916,3.4888,3.4902,3.4919,3.4913,3.4916,3.4909,3.4885,3.4885,3.4884,3.4884,0,3.5962,3.5935,3.5862,3.5778,3.5718,3.5649,3.5578,3.5543,3.5467,3.541,3.5323,3.5266,3.5153,3.5066,3.4973,3.492,3.4889,3.4882,3.4868,3.4881,3.4907,3.4891,3.4968,3.4883,3.4883,3.4883,3.4883,3.4883,3.5929,3.5879,3.5799,3.5719,3.5661,3.5597,3.5541,3.5484,3.5411,3.5315,3.5283,3.5194,3.5113,3.4985,3.4933,3.4861,3.4858,3.4839,3.4834,3.483,3.4831,3.4922,3.4844,3.4844,3.4844,3.4844,3.4844,0,3.5866,3.5813,3.5741,3.5646,3.5583,3.5564,3.5485,3.5434,3.5357,3.5285,3.5214,3.5115,3.5031,3.4955,3.4867,3.4824,3.4808,3.4803,3.4804,3.4792,3.4839,3.4858,3.4818,3.4818,3.4818,3.4818,3.4818,3.4818,3.5825,3.5739,3.5703,3.5587,3.5534,3.5448,3.5405,3.5346,3.5288,3.518,3.5111,3.5063,3.4989,3.4897,3.4818,3.4798,3.4767,3.4765,3.4741,3.4785,3.4789,3.4792,3.481,3.476,3.476,3.47,3.4699,3.4699]}]]